Hourly Data Report for June 24, 2011

HALIFAX STANFIELD INT'L A
NOVA SCOTIA

44°52'48.060" N
63°30'00.050" W
145.40 m
8202250
71395
YHZ

Download Data

Hourly Data (June 2011)
Hourly Data Report for June 24, 2011
TIME
LST
Temp Definition
°C
Dew Point Definition
°C
Rel Hum Definition
%
Precip. Amount Definition
mm

Wind Dir Definition
10's deg

Wind Spd Definition
km/h
Visibility Definition
km
Stn Press Definition
kPa
Hmdx Definition


Wind Chill Definition


Weather Definition


00:00 9.0 7.7 92   11 6 24.1 99.90     Mostly Cloudy
01:00 8.9 7.3 90   9 6 24.1 99.90     Mostly Cloudy
02:00 9.2 6.6 84   11 7 24.1 99.86     Mostly Cloudy
03:00 9.6 6.5 81   9 4 24.1 99.87     Mostly Cloudy
04:00 9.7 6.7 82   6 7 24.1 99.88     Mostly Cloudy
05:00 9.7 6.1 78   6 9 24.1 99.86     Mostly Cloudy
06:00 11.0 6.3 73   6 4 24.1 99.92     Cloudy
07:00 11.7 7.3 74   8 11 24.1 99.93     Mostly Cloudy
08:00 13.5 8.4 71   11 17 24.1 99.91     Mostly Cloudy
09:00 14.6 9.0 69   10 13 24.1 99.94     Mostly Cloudy
10:00 16.7 9.9 64   6 15 24.1 99.89     Mostly Cloudy
11:00 18.2 7.4 49   12 11 24.1 99.91     Mostly Cloudy
12:00 18.5 8.8 53   15 15 24.1 99.90     Mostly Cloudy
13:00 18.0 7.1 49   12 24 24.1 99.92     Mostly Cloudy
14:00 16.7 6.4 51   13 28 24.1 99.94     Mostly Cloudy
15:00 15.8 5.8 51   13 28 24.1 99.96     Mostly Cloudy
16:00 16.5 6.4 51   12 26 24.1 99.90     Mostly Cloudy
17:00 14.9 6.5 57   11 19 24.1 99.92     Mostly Cloudy
18:00 13.4 7.1 66   12 20 24.1 99.94     Mostly Cloudy
19:00 11.4 7.1 75   12 22 24.1 100.03     Mostly Cloudy
20:00 10.3 7.6 83   10 26 24.1 100.04     Mostly Cloudy
21:00 9.6 7.7 88   11 22 24.1 100.09     Cloudy
22:00 9.3 7.6 89   12 22 24.1 100.08     Cloudy
23:00 8.5 7.5 93   11 32 12.9 100.08     Cloudy

Notes on Data Quality.

Legend

  • E = Estimated
  • M = Missing
  • NA = Not Available*
  • [empty] = Indicates an unobserved value
Date modified: